GFSNGP_prec_kuchsnow_225.txt.gz
Snowfall_Accumulation
0.0 0.0 0.1 0.0 0.0 0.1 1.4 1.7 6.5 0.3 0.3 0.3 0.0 0.3 0.1 0.0 0.0 0.1 0.4 0.3 0.0 0.8 1.2 0.6 1.9 1.1 1.4 1.0 0.5 0.6 0.2 0.3 0.3 0.0 0.1 0.2 0.2 0.5 1.0 0.8 0.5 0.4 0.8 0.7
0.9 0.1 0.1 0.6 0.1 0.2 0.1 0.1 0.4 0.3 0.6 0.1 0.0 0.0 0.0 0.0 0.0 0.0 0.1 0.0 0.0 0.0 0.0 0.0 0.2 0.2 0.1 0.3 0.1 0.0 0.1 0.0 0.1 0.0 0.0 0.1 0.1 0.1 0.1 0.8 0.8 0.7 0.5 0.4
7.3 0.1 0.1 4.5 0.2 0.0 1.3 1.9 2.1 1.0 0.8 0.0 0.0 0.0 0.3 0.0 0.0 0.0 0.0 0.0 0.0 0.0 0.0 0.0 0.0 0.0 0.1 0.0 0.0 0.0 0.0 0.0 0.0 0.0 0.0 0.0 0.0 0.0 0.1 0.0 0.1 1.2 1.2 1.0
10.6 1.8 16.5 0.1 0.0 0.0 1.4 0.9 0.0 0.1 0.0 0.0 0.0 0.2 0.3 0.1 0.0 0.0 0.0 0.0 0.0 0.0 0.0 0.0 0.0 0.0 0.0 0.0 0.0 0.0 0.0 0.0 0.0 0.0 0.0 0.3 0.9 1.2 1.3 1.1 0.7 0.4 1.0 1.4
13.4 6.5 0.4 0.4 0.0 0.3 1.1 1.1 0.3 0.4 0.1 0.0 0.0 0.3 1.3 0.0 0.0 0.0 0.0 0.0 0.0 0.0 0.0 0.0 0.0 0.0 0.0 0.0 0.0 0.0 0.0 0.5 0.6 0.4 0.6 2.5 2.9 2.9 2.5 1.9 2.4 2.2 2.6 3.3
11.6 18.4 9.4 1.7 0.3 0.0 0.0 5.6 1.5 0.5 0.2 0.2 0.0 0.5 0.9 0.1 0.0 0.0 0.0 0.0 0.0 0.0 0.0 0.0 0.0 0.0 0.0 0.0 0.4 0.0 2.0 2.4 0.8 3.0 3.4 4.0 3.6 3.4 3.2 2.7 3.3 3.0 3.9 2.9
14.5 21.9 4.8 1.0 0.0 0.0 2.1 7.2 1.0 0.7 1.4 2.9 2.6 2.4 0.7 0.1 0.0 0.0 0.0 0.0 0.0 0.0 0.0 0.0 0.0 0.0 0.0 0.2 0.1 1.9 2.2 4.2 4.4 5.3 5.3 4.5 4.9 4.3 3.8 4.3 3.7 4.0 3.6 2.7
13.4 19.0 15.2 0.5 0.0 3.5 3.0 0.9 1.3 1.6 2.2 4.9 1.4 0.2 0.0 0.0 0.0 0.0 0.0 0.0 0.0 0.0 0.0 0.0 0.0 0.0 0.1 0.1 2.0 2.8 4.3 4.9 4.7 4.1 4.6 4.3 3.9 4.7 3.9 3.2 3.7 3.6 3.5 4.1
7.4 6.7 2.0 1.2 1.8 1.6 1.6 2.1 2.1 1.9 1.2 0.2 0.2 0.0 0.0 0.0 0.0 0.0 0.0 0.0 0.0 0.0 0.0 0.0 0.0 0.0 0.1 0.5 1.4 2.8 3.6 2.7 4.0 3.2 2.9 2.6 3.4 4.3 4.2 3.5 4.0 4.8 4.7 4.6
6.1 3.2 1.2 2.1 0.8 0.9 1.2 1.5 0.5 0.0 0.0 0.0 0.0 0.0 0.0 0.0 0.0 0.0 0.0 0.0 0.0 0.0 0.0 0.0 0.0 0.0 0.3 1.1 3.1 4.0 4.5 5.6 4.8 4.4 4.7 4.2 3.9 3.6 3.6 4.7 5.0 5.1 6.8 7.8
7.9 5.9 0.8 0.9 1.5 1.8 0.8 0.3 0.3 0.0 0.0 0.0 0.0 0.0 0.0 0.0 0.0 0.0 0.0 0.0 0.0 0.1 0.0 0.0 0.0 0.5 0.7 1.7 2.2 2.8 2.8 3.1 4.6 3.9 3.6 3.0 2.7 3.0 3.1 4.4 4.7 7.2 7.6 8.9
10.8 5.4 6.3 4.4 5.5 1.8 1.1 0.3 0.0 0.0 0.0 0.0 0.0 0.0 0.0 0.1 0.1 0.1 0.0 0.0 0.0 0.0 0.1 0.2 0.2 0.6 1.3 1.1 0.6 0.9 2.6 3.4 6.5 4.5 10.4 8.1 8.0 10.5 8.5 7.5 7.3 10.9 13.8 15.3
2.2 1.8 1.9 1.8 0.0 0.0 0.4 1.1 0.7 0.0 0.2 0.1 0.0 0.0 0.0 0.1 0.1 0.7 0.7 0.5 1.1 0.8 0.9 1.1 1.1 0.9 1.1 0.9 1.2 1.2 2.1 3.0 5.4 8.0 11.9 15.3 17.7 13.6 16.7 18.5 16.5 16.5 13.5 12.4
0.0 0.5 0.4 0.0 0.4 0.0 0.0 0.0 0.4 0.0 0.0 0.0 0.2 0.1 0.1 0.2 1.4 3.1 3.8 4.6 3.8 1.9 3.0 2.6 1.0 2.5 5.8 4.8 6.0 6.5 6.6 10.4 11.5 14.6 20.6 23.2 23.5 25.3 24.8 20.9 17.5 21.2 20.3 20.5
0.1 0.0 0.1 0.0 0.0 0.0 0.0 0.0 0.2 0.1 0.0 0.0 0.0 0.1 0.3 1.2 3.1 3.7 10.2 11.8 8.6 11.8 15.1 13.7 12.6 19.2 18.4 16.1 16.8 18.3 15.8 18.3 19.1 22.0 22.3 23.7 25.4 25.5 24.0 23.1 22.1 20.9 21.4 20.1
0.1 0.0 0.0 0.1 0.0 0.0 0.0 0.2 0.6 0.1 0.0 0.1 0.1 0.3 0.3 1.8 3.4 4.6 7.8 11.9 13.4 18.9 23.1 22.7 23.9 25.5 20.6 18.1 15.8 16.1 16.2 15.1 12.8 13.2 16.3 19.5 20.0 20.5 21.9 21.8 21.4 22.0 21.7 23.1
1.9 0.8 0.1 0.2 0.2 0.1 0.3 0.5 1.0 0.6 0.4 0.3 0.2 0.6 0.6 0.9 3.4 6.9 12.0 13.4 16.2 18.7 19.9 17.8 18.7 14.4 11.5 10.8 9.6 9.2 10.1 10.1 9.5 9.6 10.4 11.4 14.0 16.0 17.6 17.6 18.5 19.8 21.1 21.2
0.1 0.1 0.1 1.7 2.6 1.6 0.6 0.5 0.8 0.5 0.7 0.6 0.9 1.5 2.5 4.7 8.8 14.9 19.7 19.4 14.0 12.8 14.5 14.0 10.7 8.2 7.3 7.4 6.2 5.7 6.0 5.9 7.2 8.6 8.2 9.2 11.2 11.9 11.9 11.7 12.5 13.1 15.2 16.4
0.2 1.5 1.1 1.5 1.7 1.5 1.5 1.4 1.0 0.8 1.9 2.5 4.3 8.0 9.7 12.6 12.4 11.8 11.2 11.4 12.4 10.5 12.4 7.9 6.2 5.3 4.6 4.9 4.2 4.7 4.8 5.2 5.1 5.7 6.0 6.3 7.7 8.3 11.1 10.1 9.9 10.8 11.9 12.6
1.4 0.9 1.1 0.6 0.3 1.0 1.1 1.3 2.1 3.4 5.6 5.2 6.2 8.2 8.1 9.1 8.2 8.6 7.5 8.4 7.5 6.8 4.5 4.9 4.4 4.6 4.3 3.8 2.8 2.8 3.2 3.4 4.2 5.2 6.1 6.4 8.0 8.6 8.6 7.1 8.9 9.6 10.0 10.8
1.0 0.5 0.6 0.8 1.1 1.8 2.9 4.4 4.2 6.2 9.2 7.5 6.1 8.1 9.7 12.6 11.7 10.7 8.2 4.9 6.0 4.2 4.0 3.7 2.8 3.1 2.3 2.7 2.8 2.9 3.7 4.2 4.5 6.0 6.0 6.4 6.5 6.6 6.7 7.0 7.7 7.4 9.4 9.8
5.5 6.2 5.1 4.9 4.7 6.6 7.8 7.6 6.4 7.3 7.9 9.1 10.1 10.0 10.5 12.6 11.6 9.5 7.2 6.3 5.2 4.1 3.5 3.2 2.4 2.2 2.0 2.2 2.8 3.7 3.8 4.0 3.7 3.8 4.2 5.0 5.5 6.0 6.0 6.0 7.1 7.0 7.5 7.8
11.9 11.8 11.5 10.5 9.4 10.5 11.7 10.8 11.1 9.5 10.6 11.1 10.7 10.7 9.4 10.2 8.3 6.3 6.2 4.4 3.3 3.2 2.7 2.4 2.0 1.8 1.9 3.0 3.9 4.2 4.6 3.8 3.9 4.1 4.5 4.5 5.1 5.7 5.6 5.2 6.1 6.3 7.0 6.3
10.5 10.4 12.8 11.5 10.0 8.2 9.5 12.0 10.7 10.7 10.1 11.5 10.3 9.6 7.7 7.6 7.0 5.2 3.9 4.0 3.8 3.4 2.5 2.7 2.1 1.9 2.2 3.4 3.8 3.4 4.2 3.7 3.6 3.9 3.7 2.8 4.4 3.7 3.9 4.4 4.4 4.0 4.4 4.4
9.1 8.1 7.6 8.2 7.8 9.4 8.7 9.1 8.4 9.8 9.6 11.3 10.4 8.6 6.4 4.5 4.8 5.3 3.5 4.0 3.0 2.6 2.8 2.6 1.6 2.0 2.8 3.7 3.8 3.3 4.0 3.7 3.4 4.3 4.3 3.9 3.8 3.5 3.5 3.4 3.2 3.4 3.0 3.1
9.2 8.9 8.9 7.6 7.9 7.6 6.9 6.7 8.1 10.2 8.8 10.0 9.2 7.4 6.5 5.2 4.8 4.4 3.5 2.9 1.8 2.1 3.2 4.1 3.0 2.6 3.5 3.5 3.6 3.4 3.6 3.2 3.0 3.4 3.5 3.4 3.5 3.4 3.1 3.0 3.0 2.9 2.9 2.6
8.3 7.6 5.5 6.2 6.9 7.0 6.8 7.0 7.2 8.5 7.8 7.5 8.2 6.5 5.6 5.7 5.3 5.0 3.5 4.0 3.6 3.6 4.0 4.2 3.4 2.9 2.6 3.6 4.3 3.8 3.6 3.1 1.8 2.6 2.8 3.2 3.7 3.7 3.6 3.9 4.0 3.8 3.5 3.9

GFSNGP_prec_kuchsnow_231.txt.gz
Snowfall_Accumulation
0.0 0.0 0.1 0.0 0.0 0.1 1.4 1.7 6.5 0.3 0.3 0.3 0.0 0.3 0.1 0.0 0.0 0.1 0.4 0.3 0.0 0.8 1.2 0.6 1.9 1.1 1.4 1.0 0.5 0.6 0.2 0.3 0.3 0.0 0.1 0.2 0.2 0.5 1.0 0.8 0.5 0.4 0.8 0.7
0.9 0.1 0.1 0.6 0.1 0.2 0.1 0.1 0.4 0.3 0.6 0.1 0.0 0.0 0.0 0.0 0.0 0.0 0.1 0.0 0.0 0.0 0.0 0.0 0.2 0.2 0.1 0.3 0.1 0.0 0.1 0.0 0.1 0.0 0.0 0.1 0.1 0.1 0.1 0.8 0.8 0.7 0.5 0.4
7.3 0.1 0.1 4.5 0.2 0.0 1.3 1.9 2.1 1.0 0.8 0.0 0.0 0.0 0.3 0.0 0.0 0.0 0.0 0.0 0.0 0.0 0.0 0.0 0.0 0.0 0.1 0.0 0.0 0.0 0.0 0.0 0.0 0.0 0.0 0.0 0.0 0.0 0.1 0.0 0.1 1.2 1.2 1.0
12.0 2.6 20.5 0.1 0.0 0.0 1.4 0.9 0.0 0.1 0.0 0.0 0.0 0.2 0.3 0.1 0.0 0.0 0.0 0.0 0.0 0.0 0.0 0.0 0.0 0.0 0.0 0.0 0.0 0.0 0.0 0.0 0.0 0.0 0.0 0.3 0.9 1.2 1.3 1.1 0.7 0.4 1.0 1.4
17.3 8.9 0.4 0.4 0.0 0.3 1.1 1.1 0.3 0.4 0.1 0.0 0.0 0.3 1.3 0.0 0.0 0.0 0.0 0.0 0.0 0.0 0.0 0.0 0.0 0.0 0.0 0.0 0.0 0.0 0.0 0.5 0.6 0.4 0.6 2.5 2.9 2.9 2.5 1.9 2.4 2.2 2.6 3.3
16.5 21.5 10.5 1.7 0.3 0.0 0.0 5.6 1.5 0.5 0.2 0.2 0.0 0.5 0.9 0.1 0.0 0.0 0.0 0.0 0.0 0.0 0.0 0.0 0.0 0.0 0.0 0.0 0.4 0.0 2.0 2.4 0.8 3.0 3.4 4.0 3.6 3.4 3.2 2.7 3.3 3.0 3.9 2.9
18.0 24.3 4.8 1.0 0.0 0.0 2.1 7.2 1.0 0.7 1.4 2.9 2.6 2.4 0.7 0.1 0.0 0.0 0.0 0.0 0.0 0.0 0.0 0.0 0.0 0.0 0.0 0.2 0.1 1.9 2.2 4.2 4.4 5.3 5.3 4.5 4.9 4.3 3.8 4.3 3.7 4.0 3.6 2.7
15.7 21.2 15.6 0.5 0.0 3.5 3.0 0.9 1.3 1.6 2.2 4.9 1.4 0.2 0.0 0.0 0.0 0.0 0.0 0.0 0.0 0.0 0.0 0.0 0.0 0.0 0.1 0.1 2.0 2.8 4.3 4.9 4.7 4.1 4.6 4.3 3.9 4.7 3.9 3.2 3.7 3.6 3.5 4.1
7.4 6.7 2.0 1.2 1.8 1.6 1.6 2.1 2.1 1.9 1.2 0.2 0.2 0.0 0.0 0.0 0.0 0.0 0.0 0.0 0.0 0.0 0.0 0.0 0.0 0.0 0.1 0.5 1.4 2.8 3.6 2.7 4.0 3.2 2.9 2.6 3.4 4.3 4.2 3.5 4.0 4.8 4.7 4.6
6.1 3.2 1.2 2.1 0.8 0.9 1.2 1.5 0.5 0.0 0.0 0.0 0.0 0.0 0.0 0.0 0.0 0.0 0.0 0.0 0.0 0.0 0.0 0.0 0.0 0.0 0.3 1.1 3.1 4.0 4.5 5.6 4.8 4.4 4.7 4.2 3.9 3.6 3.6 4.7 5.0 5.1 6.8 7.8
7.9 5.9 0.8 0.9 1.5 1.8 0.8 0.3 0.3 0.0 0.0 0.0 0.0 0.0 0.0 0.0 0.0 0.0 0.0 0.0 0.0 0.1 0.0 0.0 0.0 0.5 0.7 1.7 2.2 2.8 2.8 3.1 4.6 3.9 3.6 3.0 2.7 3.0 3.1 4.4 4.7 7.3 7.6 8.9
10.8 5.4 6.3 4.4 5.5 1.8 1.1 0.3 0.0 0.0 0.0 0.0 0.0 0.0 0.0 0.1 0.1 0.1 0.0 0.0 0.0 0.0 0.1 0.2 0.2 0.6 1.3 1.1 0.6 0.9 2.6 3.4 6.5 4.5 10.4 8.1 8.0 10.5 8.5 7.5 7.3 10.9 13.8 15.3
2.2 1.8 1.9 1.8 0.0 0.0 0.4 1.1 0.7 0.0 0.2 0.1 0.0 0.0 0.0 0.1 0.1 0.7 0.7 0.5 1.1 0.8 0.9 1.1 1.1 0.9 1.1 0.9 1.2 1.2 2.1 3.0 5.4 8.0 11.9 15.3 17.7 13.6 16.7 18.5 16.5 16.5 13.5 12.4
0.0 0.5 0.4 0.0 0.4 0.0 0.0 0.0 0.4 0.0 0.0 0.0 0.2 0.1 0.1 0.2 1.4 3.1 3.8 4.6 3.8 1.9 3.0 2.6 1.0 2.5 5.8 4.8 6.0 6.5 6.6 10.4 11.5 14.6 20.6 23.2 23.5 25.3 24.8 20.9 17.5 21.2 20.3 20.5
0.1 0.0 0.1 0.0 0.0 0.0 0.0 0.0 0.2 0.1 0.0 0.0 0.0 0.1 0.3 1.2 3.1 3.7 10.2 11.8 8.6 11.8 15.1 13.7 12.6 19.2 18.4 16.1 16.8 18.3 15.8 18.3 19.1 22.0 22.3 23.7 25.4 25.5 24.0 23.1 22.1 20.9 21.4 20.1
0.1 0.0 0.0 0.1 0.0 0.0 0.0 0.2 0.6 0.1 0.0 0.1 0.1 0.3 0.3 1.8 3.4 4.6 7.8 11.9 13.4 18.9 23.1 22.7 23.9 25.5 20.6 18.1 15.8 16.1 16.2 15.1 12.8 13.2 16.3 19.5 20.0 20.5 21.9 21.8 21.5 22.0 21.7 23.1
1.9 0.8 0.1 0.2 0.2 0.1 0.3 0.5 1.0 0.6 0.4 0.3 0.2 0.6 0.6 0.9 3.4 6.9 12.0 13.4 16.2 18.7 19.9 17.8 18.7 14.4 11.5 10.8 9.6 9.2 10.1 10.1 9.5 9.6 10.4 11.4 14.0 16.0 17.6 17.6 18.6 19.8 21.1 21.2
0.1 0.1 0.1 1.7 2.6 1.6 0.6 0.5 0.8 0.5 0.7 0.6 0.9 1.5 2.5 4.7 8.8 14.9 19.7 19.4 14.0 12.8 14.5 14.0 10.7 8.2 7.3 7.4 6.2 5.7 6.0 5.9 7.2 8.6 8.2 9.2 11.2 11.9 11.9 11.7 12.5 13.2 15.3 16.4
0.2 1.5 1.1 1.5 1.7 1.5 1.5 1.4 1.0 0.8 1.9 2.5 4.3 8.0 9.7 12.6 12.4 11.8 11.2 11.4 12.4 10.5 12.4 7.9 6.2 5.3 4.6 4.9 4.2 4.7 4.8 5.2 5.1 5.7 6.0 6.3 7.7 8.3 11.1 10.1 9.9 10.8 11.9 12.7
1.4 0.9 1.1 0.6 0.3 1.0 1.1 1.3 2.1 3.4 5.6 5.2 6.2 8.2 8.1 9.1 8.2 8.6 7.5 8.4 7.5 6.8 4.5 4.9 4.4 4.6 4.3 3.8 2.8 2.8 3.2 3.4 4.2 5.2 6.1 6.4 8.0 8.6 8.6 7.1 8.9 9.6 10.0 10.9
1.0 0.5 0.6 0.8 1.1 1.8 2.9 4.4 4.2 6.2 9.2 7.5 6.1 8.1 9.7 12.6 11.7 10.7 8.2 4.9 6.0 4.2 4.0 3.7 2.8 3.1 2.3 2.7 2.8 2.9 3.7 4.2 4.5 6.0 6.0 6.4 6.5 6.6 6.7 7.0 7.7 7.4 9.4 9.9
5.5 6.2 5.1 4.9 4.7 6.6 7.8 7.6 6.4 7.3 7.9 9.1 10.1 10.0 10.5 12.6 11.6 9.5 7.2 6.3 5.2 4.1 3.5 3.2 2.4 2.2 2.0 2.2 2.8 3.7 3.8 4.0 3.7 3.8 4.3 5.0 5.5 6.0 6.0 6.0 7.1 7.0 7.5 7.8
11.9 11.8 11.5 10.5 9.4 10.5 11.7 10.8 11.1 9.5 10.6 11.1 10.7 10.7 9.4 10.2 8.3 6.4 6.3 4.5 3.3 3.3 2.8 2.5 2.4 2.1 2.2 3.6 4.5 4.7 5.0 4.1 4.1 4.2 4.5 4.5 5.1 5.7 5.6 5.2 6.1 6.3 7.2 6.3
10.5 10.4 12.8 11.5 10.0 8.2 9.5 12.0 10.7 10.7 10.1 11.5 10.3 9.6 7.7 7.6 7.0 5.2 3.9 4.2 4.0 3.7 2.9 3.1 2.5 2.2 2.5 3.6 4.1 3.6 4.3 3.8 3.6 4.0 3.7 2.8 4.4 3.7 3.9 4.4 4.4 4.0 4.4 4.4
9.1 8.1 7.6 8.2 7.8 9.4 8.7 9.1 8.4 9.8 9.6 11.3 10.4 8.6 6.4 4.5 4.8 5.3 3.5 4.0 3.0 2.6 2.8 2.6 1.6 2.0 2.8 3.7 3.8 3.3 4.0 3.7 3.4 4.3 4.3 3.9 3.8 3.5 3.5 3.4 3.2 3.4 3.0 3.5
9.2 8.9 8.9 7.6 7.9 7.6 6.9 6.7 8.1 10.2 8.8 10.0 9.2 7.4 6.5 5.2 4.8 4.4 3.5 2.9 1.8 2.1 3.2 4.1 3.0 2.6 3.5 3.5 3.6 3.4 3.6 3.2 3.0 3.4 3.5 3.4 3.5 3.4 3.1 3.0 3.0 2.9 2.9 2.6
8.3 7.6 5.5 6.2 6.9 7.0 6.8 7.0 7.2 8.5 7.8 7.5 8.2 6.5 5.6 5.7 5.3 5.0 3.5 4.0 3.6 3.6 4.0 4.2 3.4 2.9 2.6 3.6 4.3 3.8 3.6 3.1 1.8 2.6 2.8 3.2 3.7 3.7 3.6 3.9 4.0 3.8 3.5 3.9

GFSNGP_prec_kuchsnow_234.txt.gz
Snowfall_Accumulation
0.0 0.0 0.1 0.0 0.0 0.1 1.4 1.7 6.5 0.3 0.3 0.3 0.0 0.3 0.1 0.0 0.0 0.1 0.4 0.3 0.0 0.8 1.2 0.6 1.9 1.1 1.4 1.0 0.5 0.6 0.2 0.3 0.3 0.0 0.1 0.2 0.2 0.5 1.0 0.8 0.5 0.4 0.8 0.7
0.9 0.1 0.1 0.6 0.1 0.2 0.1 0.1 0.4 0.3 0.6 0.1 0.0 0.0 0.0 0.0 0.0 0.0 0.1 0.0 0.0 0.0 0.0 0.0 0.2 0.2 0.1 0.3 0.1 0.0 0.1 0.0 0.1 0.0 0.0 0.1 0.1 0.1 0.1 0.8 0.8 0.7 0.5 0.4
7.3 0.1 0.1 4.5 0.2 0.0 1.3 1.9 2.1 1.0 0.8 0.0 0.0 0.0 0.3 0.0 0.0 0.0 0.0 0.0 0.0 0.0 0.0 0.0 0.0 0.0 0.1 0.0 0.0 0.0 0.0 0.0 0.0 0.0 0.0 0.0 0.0 0.0 0.1 0.0 0.1 1.2 1.2 1.0
12.0 2.6 22.8 0.1 0.0 0.0 1.4 0.9 0.0 0.1 0.0 0.0 0.0 0.2 0.3 0.1 0.0 0.0 0.0 0.0 0.0 0.0 0.0 0.0 0.0 0.0 0.0 0.0 0.0 0.0 0.0 0.0 0.0 0.0 0.0 0.3 0.9 1.2 1.3 1.1 0.7 0.4 1.0 1.4
18.5 9.7 0.4 0.4 0.0 0.3 1.1 1.1 0.3 0.4 0.1 0.0 0.0 0.3 1.3 0.0 0.0 0.0 0.0 0.0 0.0 0.0 0.0 0.0 0.0 0.0 0.0 0.0 0.0 0.0 0.0 0.5 0.6 0.4 0.6 2.5 2.9 2.9 2.5 1.9 2.4 2.2 2.6 3.3
18.7 22.5 10.8 1.7 0.3 0.0 0.0 5.6 1.5 0.5 0.2 0.2 0.0 0.5 0.9 0.1 0.0 0.0 0.0 0.0 0.0 0.0 0.0 0.0 0.0 0.0 0.0 0.0 0.4 0.0 2.0 2.4 0.8 3.0 3.4 4.0 3.6 3.4 3.2 2.7 3.3 3.0 3.9 2.9
20.3 25.5 4.8 1.0 0.0 0.0 2.1 7.2 1.0 0.7 1.4 2.9 2.6 2.4 0.7 0.1 0.0 0.0 0.0 0.0 0.0 0.0 0.0 0.0 0.0 0.0 0.0 0.2 0.1 1.9 2.2 4.2 4.4 5.3 5.3 4.5 4.9 4.3 3.8 4.3 3.7 4.0 3.6 2.7
17.5 22.7 15.9 0.5 0.0 3.5 3.0 0.9 1.3 1.6 2.2 4.9 1.4 0.2 0.0 0.0 0.0 0.0 0.0 0.0 0.0 0.0 0.0 0.0 0.0 0.0 0.1 0.1 2.0 2.8 4.3 4.9 4.7 4.1 4.6 4.3 3.9 4.7 3.9 3.2 3.7 3.6 3.5 4.1
7.4 6.7 2.0 1.2 1.8 1.6 1.6 2.1 2.1 1.9 1.2 0.2 0.2 0.0 0.0 0.0 0.0 0.0 0.0 0.0 0.0 0.0 0.0 0.0 0.0 0.0 0.1 0.5 1.4 2.8 3.6 2.7 4.0 3.2 2.9 2.6 3.4 4.3 4.2 3.5 4.0 4.8 4.7 4.6
6.1 3.2 1.2 2.1 0.8 0.9 1.2 1.5 0.5 0.0 0.0 0.0 0.0 0.0 0.0 0.0 0.0 0.0 0.0 0.0 0.0 0.0 0.0 0.0 0.0 0.0 0.3 1.1 3.1 4.0 4.5 5.6 4.8 4.4 4.7 4.2 3.9 3.6 3.6 4.7 5.0 5.1 6.8 7.8
7.9 5.9 0.8 0.9 1.5 1.8 0.8 0.3 0.3 0.0 0.0 0.0 0.0 0.0 0.0 0.0 0.0 0.0 0.0 0.0 0.0 0.1 0.0 0.0 0.0 0.5 0.7 1.7 2.2 2.8 2.8 3.1 4.6 3.9 3.6 3.0 2.7 3.0 3.1 4.4 4.7 7.3 7.6 8.9
10.8 5.4 6.3 4.4 5.5 1.8 1.1 0.3 0.0 0.0 0.0 0.0 0.0 0.0 0.0 0.1 0.1 0.1 0.0 0.0 0.0 0.0 0.1 0.2 0.2 0.6 1.3 1.1 0.6 0.9 2.6 3.4 6.5 4.5 10.4 8.1 8.0 10.5 8.5 7.5 7.3 10.9 13.8 15.3
2.2 1.8 1.9 1.8 0.0 0.0 0.4 1.1 0.7 0.0 0.2 0.1 0.0 0.0 0.0 0.1 0.1 0.7 0.7 0.5 1.1 0.8 0.9 1.1 1.1 0.9 1.1 0.9 1.2 1.2 2.1 3.0 5.4 8.0 11.9 15.3 17.7 13.6 16.7 18.5 16.5 16.5 13.5 12.4
0.0 0.5 0.4 0.0 0.4 0.0 0.0 0.0 0.4 0.0 0.0 0.0 0.2 0.1 0.1 0.2 1.4 3.1 3.8 4.6 3.8 1.9 3.0 2.6 1.0 2.5 5.8 4.8 6.0 6.5 6.6 10.4 11.5 14.6 20.6 23.2 23.5 25.3 24.8 20.9 17.5 21.2 20.3 20.5
0.1 0.0 0.1 0.0 0.0 0.0 0.0 0.0 0.2 0.1 0.0 0.0 0.0 0.1 0.3 1.2 3.1 3.7 10.2 11.8 8.6 11.8 15.1 13.7 12.6 19.2 18.4 16.1 16.8 18.3 15.8 18.3 19.1 22.0 22.3 23.7 25.4 25.5 24.0 23.1 22.1 20.9 21.4 20.1
0.1 0.0 0.0 0.1 0.0 0.0 0.0 0.2 0.6 0.1 0.0 0.1 0.1 0.3 0.3 1.8 3.4 4.6 7.8 11.9 13.4 18.9 23.1 22.7 23.9 25.5 20.6 18.1 15.8 16.1 16.2 15.1 12.8 13.2 16.3 19.5 20.0 20.5 21.9 21.8 21.5 22.0 21.7 23.1
1.9 0.8 0.1 0.2 0.2 0.1 0.3 0.5 1.0 0.6 0.4 0.3 0.2 0.6 0.6 0.9 3.4 6.9 12.0 13.4 16.2 18.7 19.9 17.8 18.7 14.4 11.5 10.8 9.6 9.2 10.1 10.1 9.5 9.6 10.4 11.4 14.0 16.0 17.6 17.6 18.6 19.8 21.1 21.2
0.1 0.1 0.1 1.7 2.6 1.6 0.6 0.5 0.8 0.5 0.7 0.6 0.9 1.5 2.5 4.7 8.8 14.9 19.7 19.4 14.0 12.8 14.5 14.0 10.7 8.2 7.3 7.4 6.2 5.7 6.0 5.9 7.2 8.6 8.2 9.2 11.2 11.9 11.9 11.7 12.5 13.2 15.3 16.4
0.2 1.5 1.1 1.5 1.7 1.5 1.5 1.4 1.0 0.8 1.9 2.5 4.3 8.0 9.7 12.6 12.4 11.8 11.2 11.4 12.4 10.5 12.4 7.9 6.2 5.3 4.6 4.9 4.2 4.7 4.8 5.2 5.1 5.7 6.0 6.3 7.7 8.3 11.1 10.1 9.9 10.8 11.9 12.7
1.4 0.9 1.1 0.6 0.3 1.0 1.1 1.3 2.1 3.4 5.6 5.2 6.2 8.2 8.1 9.1 8.2 8.6 7.5 8.4 7.5 6.8 4.5 4.9 4.4 4.6 4.3 3.8 2.8 2.8 3.2 3.4 4.2 5.2 6.1 6.4 8.0 8.6 8.6 7.1 8.9 9.6 10.0 10.9
1.0 0.5 0.6 0.8 1.1 1.8 2.9 4.4 4.2 6.2 9.2 7.5 6.1 8.1 9.7 12.6 11.7 10.7 8.2 4.9 6.0 4.2 4.0 3.7 2.8 3.1 2.3 2.7 2.8 2.9 3.7 4.2 4.5 6.0 6.0 6.4 6.5 6.6 6.7 7.0 7.7 7.4 9.4 9.9
5.5 6.2 5.1 4.9 4.7 6.6 7.8 7.6 6.4 7.3 7.9 9.1 10.1 10.0 10.5 12.6 11.6 9.5 7.2 6.3 5.2 4.1 3.5 3.2 2.4 2.2 2.0 2.2 2.8 3.7 3.8 4.0 3.8 4.0 4.5 5.2 5.7 6.1 6.1 6.0 7.1 7.0 7.5 7.8
11.9 11.8 11.5 10.5 9.4 10.5 11.7 10.8 11.1 9.5 10.6 11.1 10.7 10.7 9.4 10.2 8.3 6.4 6.3 4.5 3.3 3.3 2.8 2.5 2.4 2.1 2.2 3.6 4.5 4.7 5.0 4.1 4.1 4.2 4.7 4.5 5.1 5.7 5.6 5.2 6.1 6.3 7.2 6.3
10.5 10.4 12.8 11.5 10.0 8.2 9.5 12.0 10.7 10.7 10.1 11.5 10.3 9.6 7.7 7.6 7.0 5.2 3.9 4.2 4.0 3.7 2.9 3.1 2.5 2.2 2.5 3.6 4.1 3.7 4.4 3.8 3.7 4.0 3.7 2.8 4.4 3.7 3.9 4.4 4.4 4.0 4.4 4.4
9.1 8.1 7.6 8.2 7.8 9.4 8.7 9.1 8.4 9.8 9.6 11.3 10.4 8.6 6.4 4.5 4.8 5.3 3.5 4.0 3.0 2.6 2.8 2.6 1.6 2.0 2.8 3.7 3.8 3.3 4.0 3.7 3.4 4.3 4.3 3.9 3.8 3.5 3.5 3.4 3.2 3.4 3.0 3.5
9.2 8.9 8.9 7.6 7.9 7.6 6.9 6.7 8.1 10.2 8.8 10.0 9.2 7.4 6.5 5.2 4.8 4.4 3.5 2.9 1.8 2.1 3.2 4.1 3.0 2.6 3.5 3.5 3.6 3.4 3.6 3.2 3.0 3.4 3.5 3.4 3.5 3.4 3.1 3.0 3.0 2.9 2.9 2.6
8.3 7.6 5.5 6.2 6.9 7.0 6.8 7.0 7.2 8.5 7.8 7.5 8.2 6.5 5.6 5.7 5.3 5.0 3.5 4.0 3.6 3.6 4.0 4.2 3.4 2.9 2.6 3.6 4.3 3.8 3.6 3.1 1.8 2.6 2.8 3.2 3.7 3.7 3.6 3.9 4.0 3.8 3.5 3.9

GFSNGP_prec_kuchsnow_237.txt.gz
Snowfall_Accumulation
0.0 0.0 0.1 0.0 0.0 0.1 1.4 1.7 6.5 0.3 0.3 0.3 0.0 0.3 0.1 0.0 0.0 0.1 0.4 0.3 0.0 0.8 1.2 0.6 1.9 1.1 1.4 1.0 0.5 0.6 0.2 0.3 0.3 0.0 0.1 0.2 0.2 0.5 1.0 0.8 0.5 0.4 0.8 0.7
0.9 0.1 0.1 0.6 0.1 0.2 0.1 0.1 0.4 0.3 0.6 0.1 0.0 0.0 0.0 0.0 0.0 0.0 0.1 0.0 0.0 0.0 0.0 0.0 0.2 0.2 0.1 0.3 0.1 0.0 0.1 0.0 0.1 0.0 0.0 0.1 0.1 0.1 0.1 0.8 0.8 0.7 0.5 0.4
7.3 0.1 0.1 4.5 0.2 0.0 1.3 1.9 2.1 1.0 0.8 0.0 0.0 0.0 0.3 0.0 0.0 0.0 0.0 0.0 0.0 0.0 0.0 0.0 0.0 0.0 0.1 0.0 0.0 0.0 0.0 0.0 0.0 0.0 0.0 0.0 0.0 0.0 0.1 0.0 0.1 1.2 1.2 1.0
12.0 2.6 24.3 0.1 0.0 0.0 1.4 0.9 0.0 0.1 0.0 0.0 0.0 0.2 0.3 0.1 0.0 0.0 0.0 0.0 0.0 0.0 0.0 0.0 0.0 0.0 0.0 0.0 0.0 0.0 0.0 0.0 0.0 0.0 0.0 0.3 0.9 1.2 1.3 1.1 0.7 0.4 1.0 1.4
19.1 10.5 0.4 0.4 0.0 0.3 1.1 1.1 0.3 0.4 0.1 0.0 0.0 0.3 1.3 0.0 0.0 0.0 0.0 0.0 0.0 0.0 0.0 0.0 0.0 0.0 0.0 0.0 0.0 0.0 0.0 0.5 0.6 0.4 0.6 2.5 2.9 2.9 2.5 1.9 2.4 2.2 2.6 3.3
20.1 23.5 11.3 1.7 0.3 0.0 0.0 5.6 1.5 0.5 0.2 0.2 0.0 0.5 0.9 0.1 0.0 0.0 0.0 0.0 0.0 0.0 0.0 0.0 0.0 0.0 0.0 0.0 0.4 0.0 2.0 2.4 0.8 3.0 3.4 4.0 3.6 3.4 3.2 2.7 3.3 3.0 3.9 2.9
22.6 26.5 4.8 1.0 0.0 0.0 2.1 7.2 1.0 0.7 1.4 2.9 2.6 2.4 0.7 0.1 0.0 0.0 0.0 0.0 0.0 0.0 0.0 0.0 0.0 0.0 0.0 0.2 0.1 1.9 2.2 4.2 4.4 5.3 5.3 4.5 4.9 4.3 3.8 4.3 3.7 4.0 3.6 2.7
19.8 24.3 16.1 0.5 0.0 3.5 3.0 0.9 1.3 1.6 2.2 4.9 1.4 0.2 0.0 0.0 0.0 0.0 0.0 0.0 0.0 0.0 0.0 0.0 0.0 0.0 0.1 0.1 2.0 2.8 4.3 4.9 4.7 4.1 4.6 4.3 3.9 4.7 3.9 3.2 3.7 3.6 3.5 4.1
7.4 6.7 2.0 1.2 1.8 1.6 1.6 2.1 2.1 1.9 1.2 0.2 0.2 0.0 0.0 0.0 0.0 0.0 0.0 0.0 0.0 0.0 0.0 0.0 0.0 0.0 0.1 0.5 1.4 2.8 3.6 2.7 4.0 3.2 2.9 2.6 3.4 4.3 4.2 3.5 4.0 4.8 4.7 4.6
6.1 3.2 1.2 2.1 0.8 0.9 1.2 1.5 0.5 0.0 0.0 0.0 0.0 0.0 0.0 0.0 0.0 0.0 0.0 0.0 0.0 0.0 0.0 0.0 0.0 0.0 0.3 1.1 3.1 4.0 4.5 5.6 4.8 4.4 4.7 4.2 3.9 3.6 3.6 4.7 5.0 5.1 6.8 7.8
7.9 5.9 0.8 0.9 1.5 1.8 0.8 0.3 0.3 0.0 0.0 0.0 0.0 0.0 0.0 0.0 0.0 0.0 0.0 0.0 0.0 0.1 0.0 0.0 0.0 0.5 0.7 1.7 2.2 2.8 2.8 3.1 4.6 3.9 3.6 3.0 2.7 3.0 3.1 4.4 4.7 7.3 7.6 8.9
10.8 5.4 6.3 4.4 5.5 1.8 1.1 0.3 0.0 0.0 0.0 0.0 0.0 0.0 0.0 0.1 0.1 0.1 0.0 0.0 0.0 0.0 0.1 0.2 0.2 0.6 1.3 1.1 0.6 0.9 2.6 3.4 6.5 4.5 10.4 8.1 8.0 10.5 8.5 7.5 7.3 10.9 13.8 15.3
2.2 1.8 1.9 1.8 0.0 0.0 0.4 1.1 0.7 0.0 0.2 0.1 0.0 0.0 0.0 0.1 0.1 0.7 0.7 0.5 1.1 0.8 0.9 1.1 1.1 0.9 1.1 0.9 1.2 1.2 2.1 3.0 5.4 8.0 11.9 15.3 17.7 13.6 16.7 18.5 16.5 16.5 13.5 12.4
0.0 0.5 0.4 0.0 0.4 0.0 0.0 0.0 0.4 0.0 0.0 0.0 0.2 0.1 0.1 0.2 1.4 3.1 3.8 4.6 3.8 1.9 3.0 2.6 1.0 2.5 5.8 4.8 6.0 6.5 6.6 10.4 11.5 14.6 20.6 23.2 23.5 25.3 24.8 20.9 17.5 21.2 20.3 20.5
0.1 0.0 0.1 0.0 0.0 0.0 0.0 0.0 0.2 0.1 0.0 0.0 0.0 0.1 0.3 1.2 3.1 3.7 10.2 11.8 8.6 11.8 15.1 13.7 12.6 19.2 18.4 16.1 16.8 18.3 15.8 18.3 19.1 22.0 22.3 23.7 25.4 25.5 24.0 23.1 22.1 20.9 21.4 20.1
0.1 0.0 0.0 0.1 0.0 0.0 0.0 0.2 0.6 0.1 0.0 0.1 0.1 0.3 0.3 1.8 3.4 4.6 7.8 11.9 13.4 18.9 23.1 22.7 23.9 25.5 20.6 18.1 15.8 16.1 16.2 15.1 12.8 13.2 16.3 19.5 20.0 20.5 21.9 21.8 21.5 22.0 21.7 23.1
1.9 0.8 0.1 0.2 0.2 0.1 0.3 0.5 1.0 0.6 0.4 0.3 0.2 0.6 0.6 0.9 3.4 6.9 12.0 13.4 16.2 18.7 19.9 17.8 18.7 14.4 11.5 10.8 9.6 9.2 10.1 10.1 9.5 9.6 10.4 11.4 14.0 16.0 17.6 17.6 18.6 19.8 21.1 21.2
0.1 0.1 0.1 1.7 2.6 1.6 0.6 0.5 0.8 0.5 0.7 0.6 0.9 1.5 2.5 4.7 8.8 14.9 19.7 19.4 14.0 12.8 14.5 14.0 10.7 8.2 7.3 7.4 6.2 5.7 6.0 5.9 7.2 8.6 8.2 9.2 11.2 11.9 11.9 11.7 12.5 13.2 15.3 16.4
0.2 1.5 1.1 1.5 1.7 1.5 1.5 1.4 1.0 0.8 1.9 2.5 4.3 8.0 9.7 12.6 12.4 11.8 11.2 11.4 12.4 10.5 12.4 7.9 6.2 5.3 4.6 4.9 4.2 4.7 4.8 5.2 5.1 5.7 6.0 6.3 7.7 8.3 11.1 10.1 9.9 10.8 11.9 12.7
1.4 0.9 1.1 0.6 0.3 1.0 1.1 1.3 2.1 3.4 5.6 5.2 6.2 8.2 8.1 9.1 8.2 8.6 7.5 8.4 7.5 6.8 4.5 4.9 4.4 4.6 4.3 3.8 2.8 2.8 3.2 3.4 4.2 5.2 6.1 6.4 8.0 8.7 8.6 7.1 8.9 9.6 10.0 10.9
1.0 0.5 0.6 0.8 1.1 1.8 2.9 4.4 4.2 6.2 9.2 7.5 6.1 8.1 9.7 12.6 11.7 10.7 8.2 4.9 6.0 4.2 4.0 3.7 2.8 3.1 2.3 2.7 2.8 2.9 3.7 4.2 4.6 6.1 6.1 6.4 6.5 6.6 6.7 7.0 7.7 7.4 9.4 9.9
5.5 6.2 5.1 4.9 4.7 6.6 7.8 7.6 6.4 7.3 7.9 9.1 10.1 10.0 10.5 12.6 11.6 9.5 7.2 6.3 5.2 4.1 3.5 3.2 2.4 2.2 2.0 2.2 2.8 3.7 3.8 4.0 3.8 4.0 4.5 5.2 5.8 6.1 6.1 6.0 7.1 7.0 7.5 7.8
11.9 11.8 11.5 10.5 9.4 10.5 11.7 10.8 11.1 9.5 10.6 11.1 10.7 10.7 9.4 10.2 8.3 6.4 6.3 4.5 3.3 3.3 2.8 2.5 2.4 2.1 2.2 3.6 4.5 4.7 5.0 4.1 4.1 4.2 4.7 4.5 5.2 5.7 5.6 5.2 6.1 6.3 7.2 6.3
10.5 10.4 12.8 11.5 10.0 8.2 9.5 12.0 10.7 10.7 10.1 11.5 10.3 9.6 7.7 7.6 7.0 5.2 3.9 4.2 4.0 3.7 2.9 3.1 2.5 2.2 2.5 3.6 4.1 3.7 4.4 3.8 3.7 4.0 3.7 2.8 4.4 3.7 4.0 4.4 4.4 4.0 4.4 4.4
9.1 8.1 7.6 8.2 7.8 9.4 8.7 9.1 8.4 9.8 9.6 11.3 10.4 8.6 6.4 4.5 4.8 5.3 3.5 4.0 3.0 2.6 2.8 2.6 1.6 2.0 2.8 3.7 3.8 3.3 4.0 3.7 3.4 4.3 4.3 3.9 3.8 3.5 3.5 3.4 3.2 3.4 3.0 3.5
9.2 8.9 8.9 7.6 7.9 7.6 6.9 6.7 8.1 10.2 8.8 10.0 9.2 7.4 6.5 5.2 4.8 4.4 3.5 2.9 1.8 2.1 3.2 4.1 3.0 2.6 3.5 3.5 3.6 3.4 3.6 3.2 3.0 3.4 3.5 3.4 3.5 3.4 3.1 3.0 3.0 2.9 2.9 2.6
8.3 7.6 5.5 6.2 6.9 7.0 6.8 7.0 7.2 8.5 7.8 7.5 8.2 6.5 5.6 5.7 5.3 5.0 3.5 4.0 3.6 3.6 4.0 4.2 3.4 2.9 2.6 3.6 4.3 3.8 3.6 3.1 1.8 2.6 2.8 3.2 3.7 3.7 3.6 3.9 4.0 3.8 3.5 3.9